Time,TemperatureF,DewpointF,PressureIn,WindDirection,WindDirectionDegrees,WindSpeedMPH,WindSpeedGustMPH,Humidity,HourlyPrecipIn,Conditions,Clouds,dailyrainin,SolarRadiationWatts/m^2,SoftwareType,DateUTC
2013-08-07 00:01:00,69.6,65.2,30.09,North,0,0.0,0.0,86,0.00,,,0.00,0,LWC V2.00 B2112,2013-08-07 04:01:00,
2013-08-07 00:06:00,69.4,64.7,30.09,North,0,0.0,0.0,85,0.00,,,0.00,0,LWC V2.00 B2112,2013-08-07 04:06:00,
2013-08-07 00:11:00,69.3,64.9,30.09,North,0,0.0,0.0,86,0.00,,,0.00,0,LWC V2.00 B2112,2013-08-07 04:11:00,
2013-08-07 00:16:00,69.1,64.7,30.09,North,0,0.0,0.0,86,0.00,,,0.00,0,LWC V2.00 B2112,2013-08-07 04:16:00,
2013-08-07 00:21:00,69.0,64.6,30.09,North,0,0.0,0.0,86,0.00,,,0.00,0,LWC V2.00 B2112,2013-08-07 04:21:00,
2013-08-07 00:26:00,68.8,64.4,30.09,North,0,0.0,0.0,86,0.00,,,0.00,0,LWC V2.00 B2112,2013-08-07 04:26:00,
2013-08-07 00:31:00,68.7,64.7,30.09,North,0,0.0,0.0,87,0.00,,,0.00,0,LWC V2.00 B2112,2013-08-07 04:31:00,
2013-08-07 00:32:00,68.7,64.7,30.09,North,0,0.0,0.0,87,0.00,,,0.00,0,LWC V2.00 B2112,2013-08-07 04:32:00,
2013-08-07 00:37:00,68.5,64.5,30.09,North,0,0.0,0.0,87,0.00,,,0.00,0,LWC V2.00 B2112,2013-08-07 04:37:00,
2013-08-07 00:42:00,68.3,64.3,30.09,North,0,0.0,0.0,87,0.00,,,0.00,0,LWC V2.00 B2112,2013-08-07 04:42:00,
2013-08-07 00:47:00,68.1,64.4,30.09,North,0,0.0,0.0,88,0.00,,,0.00,0,LWC V2.00 B2112,2013-08-07 04:47:00,
2013-08-07 00:52:00,67.9,64.2,30.09,North,0,0.0,0.0,88,0.00,,,0.00,0,LWC V2.00 B2112,2013-08-07 04:52:00,
2013-08-07 00:57:00,67.9,64.2,30.09,North,0,0.0,0.0,88,0.00,,,0.00,0,LWC V2.00 B2112,2013-08-07 04:57:00,
2013-08-07 01:02:00,67.7,64.3,30.10,North,0,0.0,0.0,89,0.00,,,0.00,0,LWC V2.00 B2112,2013-08-07 05:02:00,
2013-08-07 01:07:00,67.6,64.2,30.09,North,0,0.0,0.0,89,0.00,,,0.00,0,LWC V2.00 B2112,2013-08-07 05:07:00,
2013-08-07 01:12:00,67.6,64.2,30.09,North,0,0.0,0.0,89,0.00,,,0.00,0,LWC V2.00 B2112,2013-08-07 05:12:00,
2013-08-07 01:17:00,67.5,64.1,30.09,North,0,0.0,0.0,89,0.00,,,0.00,0,LWC V2.00 B2112,2013-08-07 05:17:00,
2013-08-07 01:22:00,67.5,64.5,30.09,North,0,0.0,0.0,90,0.00,,,0.00,0,LWC V2.00 B2112,2013-08-07 05:22:00,
2013-08-07 01:27:00,67.5,64.5,30.09,North,0,0.0,0.0,90,0.00,,,0.00,0,LWC V2.00 B2112,2013-08-07 05:27:00,
2013-08-07 01:32:00,67.5,64.5,30.09,North,0,0.0,0.0,90,0.00,,,0.00,0,LWC V2.00 B2112,2013-08-07 05:32:00,
2013-08-07 01:38:00,67.5,64.5,30.09,North,0,0.0,0.0,90,0.00,,,0.00,0,LWC V2.00 B2112,2013-08-07 05:38:00,
2013-08-07 01:43:00,67.5,64.5,30.09,North,0,0.0,0.0,90,0.00,,,0.00,0,LWC V2.00 B2112,2013-08-07 05:43:00,
2013-08-07 01:48:00,67.5,64.5,30.09,North,0,0.0,0.0,90,0.00,,,0.00,0,LWC V2.00 B2112,2013-08-07 05:48:00,
2013-08-07 01:53:00,67.5,64.5,30.09,North,0,0.0,0.0,90,0.00,,,0.00,0,LWC V2.00 B2112,2013-08-07 05:53:00,
2013-08-07 01:58:00,67.5,64.5,30.09,North,0,0.0,0.0,90,0.00,,,0.00,0,LWC V2.00 B2112,2013-08-07 05:58:00,
2013-08-07 02:03:00,67.5,64.5,30.09,North,0,0.0,0.0,90,0.00,,,0.00,0,LWC V2.00 B2112,2013-08-07 06:03:00,
2013-08-07 02:08:00,67.5,64.1,30.09,North,0,0.0,0.0,89,0.00,,,0.00,0,LWC V2.00 B2112,2013-08-07 06:08:00,
2013-08-07 02:13:00,67.5,64.1,30.09,North,0,0.0,0.0,89,0.00,,,0.00,0,LWC V2.00 B2112,2013-08-07 06:13:00,
2013-08-07 02:18:00,67.5,64.1,30.09,North,0,0.0,0.0,89,0.00,,,0.00,0,LWC V2.00 B2112,2013-08-07 06:18:00,
2013-08-07 02:23:00,67.4,64.0,30.09,North,0,0.0,0.0,89,0.00,,,0.00,0,LWC V2.00 B2112,2013-08-07 06:23:00,
2013-08-07 02:28:00,67.4,64.0,30.09,North,0,0.0,0.0,89,0.00,,,0.00,0,LWC V2.00 B2112,2013-08-07 06:28:00,
2013-08-07 02:33:00,67.3,63.9,30.09,North,0,0.0,0.0,89,0.00,,,0.00,0,LWC V2.00 B2112,2013-08-07 06:33:00,
2013-08-07 02:38:00,67.2,64.2,30.09,North,0,0.0,0.0,90,0.00,,,0.00,0,LWC V2.00 B2112,2013-08-07 06:38:00,
2013-08-07 02:43:00,67.1,63.7,30.09,North,0,0.0,0.0,89,0.00,,,0.00,0,LWC V2.00 B2112,2013-08-07 06:43:00,
2013-08-07 02:48:00,67.0,63.6,30.09,North,0,0.0,0.0,89,0.00,,,0.00,0,LWC V2.00 B2112,2013-08-07 06:48:00,
2013-08-07 02:53:00,66.9,63.5,30.09,North,0,0.0,0.0,89,0.00,,,0.00,0,LWC V2.00 B2112,2013-08-07 06:53:00,
2013-08-07 02:58:00,66.8,63.4,30.09,North,0,0.0,0.0,89,0.00,,,0.00,0,LWC V2.00 B2112,2013-08-07 06:58:00,
2013-08-07 03:03:00,66.7,63.3,30.09,North,0,0.0,0.0,89,0.00,,,0.00,0,LWC V2.00 B2112,2013-08-07 07:03:00,
2013-08-07 03:08:00,66.6,63.2,30.09,North,0,0.0,0.0,89,0.00,,,0.00,0,LWC V2.00 B2112,2013-08-07 07:08:00,
2013-08-07 03:13:00,66.4,63.4,30.09,North,0,0.0,0.0,90,0.00,,,0.00,0,LWC V2.00 B2112,2013-08-07 07:13:00,
2013-08-07 03:18:00,66.3,63.3,30.09,North,0,0.0,0.0,90,0.00,,,0.00,0,LWC V2.00 B2112,2013-08-07 07:18:00,
2013-08-07 03:23:00,66.3,63.6,30.09,North,0,0.0,0.0,91,0.00,,,0.00,0,LWC V2.00 B2112,2013-08-07 07:23:00,
2013-08-07 03:28:00,66.2,63.5,30.09,North,0,0.0,0.0,91,0.00,,,0.00,0,LWC V2.00 B2112,2013-08-07 07:28:00,
2013-08-07 03:33:00,66.2,63.5,30.09,North,0,0.0,0.0,91,0.00,,,0.00,0,LWC V2.00 B2112,2013-08-07 07:33:00,
2013-08-07 03:38:00,66.1,63.4,30.09,North,0,0.0,0.0,91,0.00,,,0.00,0,LWC V2.00 B2112,2013-08-07 07:38:00,
2013-08-07 03:43:00,66.1,63.4,30.09,North,0,0.0,0.0,91,0.00,,,0.00,0,LWC V2.00 B2112,2013-08-07 07:43:00,
2013-08-07 03:48:00,66.1,63.7,30.09,North,0,0.0,0.0,92,0.00,,,0.00,0,LWC V2.00 B2112,2013-08-07 07:48:00,
2013-08-07 03:53:00,66.1,63.7,30.09,North,0,0.0,0.0,92,0.00,,,0.00,0,LWC V2.00 B2112,2013-08-07 07:53:00,
2013-08-07 03:58:00,66.2,63.8,30.09,North,0,0.0,0.0,92,0.00,,,0.00,0,LWC V2.00 B2112,2013-08-07 07:58:00,
2013-08-07 04:03:00,66.2,63.8,30.09,North,0,0.0,0.0,92,0.00,,,0.00,0,LWC V2.00 B2112,2013-08-07 08:03:00,
2013-08-07 04:08:00,66.2,63.8,30.09,North,0,0.0,0.0,92,0.00,,,0.00,0,LWC V2.00 B2112,2013-08-07 08:08:00,
2013-08-07 04:13:00,66.2,63.8,30.09,North,0,0.0,0.0,92,0.00,,,0.00,0,LWC V2.00 B2112,2013-08-07 08:13:00,
2013-08-07 04:18:00,66.2,63.8,30.09,North,0,0.0,0.0,92,0.00,,,0.00,0,LWC V2.00 B2112,2013-08-07 08:18:00,
2013-08-07 04:23:00,66.3,63.9,30.10,North,0,0.0,0.0,92,0.00,,,0.00,0,LWC V2.00 B2112,2013-08-07 08:23:00,
2013-08-07 04:28:00,66.3,63.9,30.10,North,0,0.0,0.0,92,0.00,,,0.00,0,LWC V2.00 B2112,2013-08-07 08:28:00,
2013-08-07 04:33:00,66.4,64.3,30.10,North,0,0.0,0.0,93,0.00,,,0.00,0,LWC V2.00 B2112,2013-08-07 08:33:00,
2013-08-07 04:38:00,66.4,64.3,30.10,North,0,0.0,0.0,93,0.00,,,0.00,0,LWC V2.00 B2112,2013-08-07 08:38:00,
2013-08-07 04:43:00,66.5,64.4,30.10,North,0,0.0,0.0,93,0.00,,,0.00,0,LWC V2.00 B2112,2013-08-07 08:43:00,
2013-08-07 04:48:00,66.5,64.4,30.10,North,0,0.0,0.0,93,0.00,,,0.00,0,LWC V2.00 B2112,2013-08-07 08:48:00,
2013-08-07 04:53:00,66.5,64.4,30.10,North,0,0.0,0.0,93,0.00,,,0.00,0,LWC V2.00 B2112,2013-08-07 08:53:00,
2013-08-07 04:58:00,66.5,64.4,30.10,North,0,0.0,0.0,93,0.00,,,0.00,0,LWC V2.00 B2112,2013-08-07 08:58:00,
2013-08-07 05:03:00,66.6,64.5,30.10,North,0,0.0,0.0,93,0.00,,,0.00,0,LWC V2.00 B2112,2013-08-07 09:03:00,
2013-08-07 05:08:00,66.6,64.5,30.10,North,0,0.0,0.0,93,0.00,,,0.00,0,LWC V2.00 B2112,2013-08-07 09:08:00,
2013-08-07 05:13:00,66.7,64.6,30.10,North,0,0.0,0.0,93,0.00,,,0.00,0,LWC V2.00 B2112,2013-08-07 09:13:00,
2013-08-07 05:18:00,66.7,64.6,30.10,North,0,0.0,0.0,93,0.00,,,0.00,0,LWC V2.00 B2112,2013-08-07 09:18:00,
2013-08-07 05:23:00,66.7,64.6,30.10,North,0,0.0,0.0,93,0.00,,,0.00,0,LWC V2.00 B2112,2013-08-07 09:23:00,
2013-08-07 05:28:00,66.8,64.7,30.10,North,0,0.0,0.0,93,0.00,,,0.00,0,LWC V2.00 B2112,2013-08-07 09:28:00,
2013-08-07 05:33:00,66.8,64.7,30.10,North,0,0.0,0.0,93,0.00,,,0.00,0,LWC V2.00 B2112,2013-08-07 09:33:00,
2013-08-07 05:38:00,66.8,64.7,30.10,North,0,0.0,0.0,93,0.00,,,0.00,0,LWC V2.00 B2112,2013-08-07 09:38:00,
2013-08-07 05:43:00,66.8,64.7,30.10,North,0,0.0,0.0,93,0.00,,,0.00,0,LWC V2.00 B2112,2013-08-07 09:43:00,
2013-08-07 05:48:00,66.8,64.7,30.10,North,0,0.0,0.0,93,0.00,,,0.00,0,LWC V2.00 B2112,2013-08-07 09:48:00,
2013-08-07 05:53:00,66.8,64.7,30.10,North,0,0.0,0.0,93,0.00,,,0.00,0,LWC V2.00 B2112,2013-08-07 09:53:00,
2013-08-07 05:58:00,66.8,64.7,30.09,North,0,0.0,0.0,93,0.00,,,0.00,0,LWC V2.00 B2112,2013-08-07 09:58:00,
2013-08-07 06:03:00,66.8,64.7,30.10,North,0,0.0,0.0,93,0.00,,,0.00,0,LWC V2.00 B2112,2013-08-07 10:03:00,
2013-08-07 06:08:00,66.8,64.7,30.10,North,0,0.0,0.0,93,0.00,,,0.00,0,LWC V2.00 B2112,2013-08-07 10:08:00,
2013-08-07 06:13:00,66.9,64.8,30.10,North,0,0.0,0.0,93,0.00,,,0.00,0,LWC V2.00 B2112,2013-08-07 10:13:00,
2013-08-07 06:18:00,66.9,64.8,30.10,North,0,0.0,0.0,93,0.00,,,0.00,0,LWC V2.00 B2112,2013-08-07 10:18:00,
2013-08-07 06:23:00,66.9,64.8,30.10,North,0,0.0,0.0,93,0.00,,,0.00,0,LWC V2.00 B2112,2013-08-07 10:23:00,
2013-08-07 06:28:00,66.9,64.8,30.10,North,0,0.0,0.0,93,0.00,,,0.00,0,LWC V2.00 B2112,2013-08-07 10:28:00,
2013-08-07 06:33:00,66.9,64.8,30.10,North,0,0.0,0.0,93,0.00,,,0.00,0,LWC V2.00 B2112,2013-08-07 10:33:00,
2013-08-07 06:38:00,66.9,64.8,30.10,North,0,0.0,0.0,93,0.00,,,0.00,0,LWC V2.00 B2112,2013-08-07 10:38:00,
2013-08-07 06:43:00,66.9,64.8,30.10,North,0,0.0,0.0,93,0.00,,,0.00,0,LWC V2.00 B2112,2013-08-07 10:43:00,
2013-08-07 06:48:00,67.0,64.9,30.10,North,0,0.0,0.0,93,0.00,,,0.00,0,LWC V2.00 B2112,2013-08-07 10:48:00,
2013-08-07 06:53:00,67.0,64.9,30.11,North,0,0.0,0.0,93,0.00,,,0.00,0,LWC V2.00 B2112,2013-08-07 10:53:00,
2013-08-07 06:58:00,67.0,64.9,30.10,North,0,0.0,0.0,93,0.00,,,0.00,7,LWC V2.00 B2112,2013-08-07 10:58:00,
2013-08-07 07:03:00,67.1,65.0,30.10,North,0,0.0,0.0,93,0.00,,,0.00,12,LWC V2.00 B2112,2013-08-07 11:03:00,
2013-08-07 07:08:00,67.2,65.1,30.10,North,0,0.0,0.0,93,0.00,,,0.00,5,LWC V2.00 B2112,2013-08-07 11:08:00,
2013-08-07 07:13:00,67.2,65.1,30.10,North,0,0.0,0.0,93,0.00,,,0.00,5,LWC V2.00 B2112,2013-08-07 11:13:00,
2013-08-07 07:18:00,67.4,65.3,30.11,North,0,0.0,0.0,93,0.00,,,0.00,0,LWC V2.00 B2112,2013-08-07 11:18:00,
2013-08-07 07:23:00,67.4,65.3,30.11,North,0,0.0,0.0,93,0.00,,,0.00,7,LWC V2.00 B2112,2013-08-07 11:23:00,
2013-08-07 07:28:00,67.5,65.4,30.11,North,0,0.0,0.0,93,0.00,,,0.00,9,LWC V2.00 B2112,2013-08-07 11:28:00,
2013-08-07 07:33:00,67.6,65.5,30.11,North,0,0.0,0.0,93,0.00,,,0.00,5,LWC V2.00 B2112,2013-08-07 11:33:00,
2013-08-07 07:38:00,67.7,65.6,30.11,North,0,0.0,0.0,93,0.00,,,0.00,5,LWC V2.00 B2112,2013-08-07 11:38:00,
2013-08-07 07:43:00,67.8,65.7,30.11,North,0,0.0,0.0,93,0.00,,,0.00,11,LWC V2.00 B2112,2013-08-07 11:43:00,
2013-08-07 07:48:00,67.9,65.8,30.10,North,0,0.0,0.0,93,0.00,,,0.00,12,LWC V2.00 B2112,2013-08-07 11:48:00,
2013-08-07 07:53:00,67.9,65.5,30.11,North,0,0.0,0.0,92,0.00,,,0.00,12,LWC V2.00 B2112,2013-08-07 11:53:00,
2013-08-07 07:58:00,68.1,65.7,30.10,North,0,0.0,0.0,92,0.00,,,0.00,16,LWC V2.00 B2112,2013-08-07 11:58:00,
2013-08-07 08:03:00,68.3,65.9,30.10,North,0,0.0,0.0,92,0.00,,,0.00,28,LWC V2.00 B2112,2013-08-07 12:03:00,
2013-08-07 08:08:00,68.5,65.8,30.10,North,0,0.0,0.0,91,0.00,,,0.00,23,LWC V2.00 B2112,2013-08-07 12:08:00,
2013-08-07 08:13:00,68.8,65.7,30.10,North,0,0.0,0.0,90,0.00,,,0.00,28,LWC V2.00 B2112,2013-08-07 12:13:00,
2013-08-07 08:18:00,69.2,66.1,30.10,North,0,0.0,0.0,90,0.00,,,0.00,28,LWC V2.00 B2112,2013-08-07 12:18:00,
2013-08-07 08:23:00,69.5,66.1,30.10,North,0,0.0,0.0,89,0.00,,,0.00,25,LWC V2.00 B2112,2013-08-07 12:23:00,
2013-08-07 08:28:00,69.9,66.2,30.10,North,0,0.0,1.0,88,0.00,,,0.00,28,LWC V2.00 B2112,2013-08-07 12:28:00,
2013-08-07 08:33:00,70.2,66.5,30.10,North,0,0.0,0.0,88,0.00,,,0.00,26,LWC V2.00 B2112,2013-08-07 12:33:00,
2013-08-07 08:38:00,70.5,66.4,30.10,North,0,0.0,2.0,87,0.00,,,0.00,21,LWC V2.00 B2112,2013-08-07 12:38:00,
2013-08-07 08:43:00,70.6,66.2,30.10,North,0,0.0,1.0,86,0.00,,,0.00,19,LWC V2.00 B2112,2013-08-07 12:43:00,
2013-08-07 08:48:00,70.8,66.4,30.10,North,0,0.0,0.0,86,0.00,,,0.00,12,LWC V2.00 B2112,2013-08-07 12:48:00,
2013-08-07 08:53:00,70.9,66.5,30.10,North,0,0.0,0.0,86,0.00,,,0.00,9,LWC V2.00 B2112,2013-08-07 12:53:00,
2013-08-07 08:58:00,70.9,66.2,30.09,North,355,0.0,0.0,85,0.00,,,0.00,11,LWC V2.00 B2112,2013-08-07 12:58:00,
2013-08-07 09:03:00,70.9,66.5,30.09,North,355,0.0,0.0,86,0.00,,,0.00,12,LWC V2.00 B2112,2013-08-07 13:03:00,
2013-08-07 09:08:00,70.9,66.5,30.09,North,355,0.0,0.0,86,0.00,,,0.00,14,LWC V2.00 B2112,2013-08-07 13:08:00,
2013-08-07 09:13:00,70.9,66.5,30.10,North,0,0.0,1.0,86,0.00,,,0.00,11,LWC V2.00 B2112,2013-08-07 13:13:00,
2013-08-07 09:18:00,70.9,66.2,30.09,North,0,3.0,3.0,85,0.00,,,0.00,19,LWC V2.00 B2112,2013-08-07 13:18:00,
2013-08-07 09:23:00,71.0,66.3,30.10,North,0,0.0,0.0,85,0.00,,,0.00,19,LWC V2.00 B2112,2013-08-07 13:23:00,
2013-08-07 09:28:00,71.0,66.3,30.10,North,0,0.0,0.0,85,0.00,,,0.00,18,LWC V2.00 B2112,2013-08-07 13:28:00,
2013-08-07 09:33:00,71.1,66.0,30.10,North,0,0.0,0.0,84,0.00,,,0.00,12,LWC V2.00 B2112,2013-08-07 13:33:00,
2013-08-07 09:38:00,71.1,66.0,30.10,North,0,0.0,0.0,84,0.00,,,0.00,9,LWC V2.00 B2112,2013-08-07 13:38:00,
2013-08-07 09:43:00,71.2,66.1,30.10,North,0,1.0,1.0,84,0.00,,,0.00,14,LWC V2.00 B2112,2013-08-07 13:43:00,
2013-08-07 09:48:00,71.2,66.1,30.10,North,0,0.0,0.0,84,0.00,,,0.00,11,LWC V2.00 B2112,2013-08-07 13:48:00,
2013-08-07 09:53:00,71.2,66.1,30.10,North,0,0.0,0.0,84,0.00,,,0.00,11,LWC V2.00 B2112,2013-08-07 13:53:00,
2013-08-07 09:58:00,71.2,66.1,30.10,North,0,0.0,1.0,84,0.00,,,0.00,14,LWC V2.00 B2112,2013-08-07 13:58:00,
2013-08-07 10:03:00,71.2,66.1,30.10,North,0,0.0,0.0,84,0.00,,,0.00,16,LWC V2.00 B2112,2013-08-07 14:03:00,
2013-08-07 10:08:00,71.3,66.2,30.09,North,0,0.0,0.0,84,0.00,,,0.00,23,LWC V2.00 B2112,2013-08-07 14:08:00,
2013-08-07 10:13:00,71.3,65.9,30.10,North,0,0.0,0.0,83,0.00,,,0.00,19,LWC V2.00 B2112,2013-08-07 14:13:00,
2013-08-07 10:18:00,71.4,66.3,30.10,North,0,1.0,1.0,84,0.00,,,0.00,14,LWC V2.00 B2112,2013-08-07 14:18:00,
2013-08-07 10:23:00,71.5,66.4,30.10,North,0,0.0,0.0,84,0.00,,,0.00,12,LWC V2.00 B2112,2013-08-07 14:23:00,
2013-08-07 10:28:00,71.5,66.4,30.10,North,0,0.0,0.0,84,0.00,,,0.00,16,LWC V2.00 B2112,2013-08-07 14:28:00,
2013-08-07 10:33:00,71.6,66.5,30.10,North,0,0.0,0.0,84,0.00,,,0.00,21,LWC V2.00 B2112,2013-08-07 14:33:00,
2013-08-07 10:38:00,71.6,66.5,30.10,North,355,0.0,2.0,84,0.00,,,0.00,28,LWC V2.00 B2112,2013-08-07 14:38:00,
2013-08-07 10:43:00,71.8,66.7,30.10,North,0,1.0,1.0,84,0.00,,,0.00,42,LWC V2.00 B2112,2013-08-07 14:43:00,
2013-08-07 10:48:00,72.0,66.5,30.10,North,0,0.0,0.0,83,0.00,,,0.00,56,LWC V2.00 B2112,2013-08-07 14:48:00,
2013-08-07 10:53:00,72.3,66.8,30.09,North,0,0.0,0.0,83,0.00,,,0.00,63,LWC V2.00 B2112,2013-08-07 14:53:00,
2013-08-07 10:58:00,72.6,66.8,30.09,North,0,1.0,2.0,82,0.00,,,0.00,56,LWC V2.00 B2112,2013-08-07 14:58:00,
2013-08-07 11:03:00,72.9,66.4,30.09,North,0,0.0,3.0,80,0.00,,,0.00,51,LWC V2.00 B2112,2013-08-07 15:03:00,
2013-08-07 11:08:00,73.1,66.9,30.09,North,0,1.0,1.0,81,0.00,,,0.00,54,LWC V2.00 B2112,2013-08-07 15:08:00,
2013-08-07 11:13:00,73.3,67.1,30.09,North,0,0.0,2.0,81,0.00,,,0.00,74,LWC V2.00 B2112,2013-08-07 15:13:00,
2013-08-07 11:18:00,73.6,67.0,30.09,North,0,0.0,0.0,80,0.00,,,0.00,53,LWC V2.00 B2112,2013-08-07 15:18:00,
2013-08-07 11:23:00,73.8,66.9,30.09,North,0,0.0,2.0,79,0.00,,,0.00,72,LWC V2.00 B2112,2013-08-07 15:23:00,
2013-08-07 11:28:00,74.0,67.1,30.09,North,0,1.0,1.0,79,0.00,,,0.00,60,LWC V2.00 B2112,2013-08-07 15:28:00,
2013-08-07 11:33:00,74.2,67.3,30.09,North,0,0.0,1.0,79,0.00,,,0.00,67,LWC V2.00 B2112,2013-08-07 15:33:00,
2013-08-07 11:38:00,74.4,67.4,30.09,North,0,0.0,1.0,79,0.00,,,0.00,107,LWC V2.00 B2112,2013-08-07 15:38:00,
2013-08-07 11:43:00,74.8,67.1,30.09,North,0,1.0,1.0,77,0.00,,,0.00,76,LWC V2.00 B2112,2013-08-07 15:43:00,
2013-08-07 11:48:00,75.0,66.9,30.09,North,0,1.0,3.0,76,0.00,,,0.00,84,LWC V2.00 B2112,2013-08-07 15:48:00,
2013-08-07 11:53:00,75.1,67.0,30.09,North,0,1.0,2.0,76,0.00,,,0.00,81,LWC V2.00 B2112,2013-08-07 15:53:00,
2013-08-07 11:58:00,75.2,67.5,30.09,North,0,2.0,2.0,77,0.00,,,0.00,49,LWC V2.00 B2112,2013-08-07 15:58:00,
2013-08-07 12:03:00,75.1,67.4,30.09,North,355,0.0,0.0,77,0.00,,,0.00,65,LWC V2.00 B2112,2013-08-07 16:03:00,
2013-08-07 12:08:00,75.1,67.4,30.09,North,355,0.0,1.0,77,0.00,,,0.00,62,LWC V2.00 B2112,2013-08-07 16:08:00,
2013-08-07 12:13:00,75.2,67.1,30.09,North,0,0.0,1.0,76,0.00,,,0.00,47,LWC V2.00 B2112,2013-08-07 16:13:00,
2013-08-07 12:18:00,75.3,67.6,30.09,North,355,0.0,1.0,77,0.00,,,0.00,23,LWC V2.00 B2112,2013-08-07 16:18:00,
2013-08-07 12:23:00,75.3,67.2,30.09,North,0,0.0,1.0,76,0.00,,,0.00,23,LWC V2.00 B2112,2013-08-07 16:23:00,
2013-08-07 12:28:00,75.2,67.5,30.09,North,0,0.0,0.0,77,0.00,,,0.00,63,LWC V2.00 B2112,2013-08-07 16:28:00,
2013-08-07 12:34:00,75.3,67.6,30.09,North,0,0.0,0.0,77,0.00,,,0.00,65,LWC V2.00 B2112,2013-08-07 16:34:00,
2013-08-07 12:39:00,75.5,67.8,30.09,North,355,0.0,1.0,77,0.00,,,0.00,105,LWC V2.00 B2112,2013-08-07 16:39:00,
2013-08-07 12:44:00,75.7,68.0,30.08,North,355,0.0,1.0,77,0.00,,,0.00,83,LWC V2.00 B2112,2013-08-07 16:44:00,
2013-08-07 12:49:00,76.1,67.6,30.08,North,0,0.0,2.0,75,0.00,,,0.00,102,LWC V2.00 B2112,2013-08-07 16:49:00,
2013-08-07 12:54:00,76.4,68.3,30.08,North,0,0.0,2.0,76,0.00,,,0.00,190,LWC V2.00 B2112,2013-08-07 16:54:00,
2013-08-07 12:59:00,76.9,68.0,30.08,North,0,1.0,2.0,74,0.00,,,0.00,62,LWC V2.00 B2112,2013-08-07 16:59:00,
2013-08-07 13:02:00,77.1,68.2,30.08,North,0,0.0,1.0,74,0.00,,,0.00,142,LWC V2.00 B2112,2013-08-07 17:02:00,
2013-08-07 13:07:00,77.1,68.2,30.08,North,0,0.0,1.0,74,0.00,,,0.00,109,LWC V2.00 B2112,2013-08-07 17:07:00,
2013-08-07 13:12:00,77.2,67.9,30.08,North,0,1.0,1.0,73,0.00,,,0.00,214,LWC V2.00 B2112,2013-08-07 17:12:00,
2013-08-07 13:18:00,77.3,67.6,30.08,North,0,0.0,1.0,72,0.00,,,0.00,86,LWC V2.00 B2112,2013-08-07 17:18:00,
2013-08-07 13:23:00,77.3,67.1,30.08,North,355,1.0,2.0,71,0.00,,,0.00,517,LWC V2.00 B2112,2013-08-07 17:23:00,
2013-08-07 13:28:00,77.6,67.4,30.07,North,351,2.0,2.0,71,0.00,,,0.00,51,LWC V2.00 B2112,2013-08-07 17:28:00,
2013-08-07 13:33:00,78.0,67.8,30.07,NNW,348,2.0,2.0,71,0.00,,,0.00,420,LWC V2.00 B2112,2013-08-07 17:33:00,
2013-08-07 13:38:00,78.4,67.4,30.07,North,355,0.0,3.0,69,0.00,,,0.00,457,LWC V2.00 B2112,2013-08-07 17:38:00,
2013-08-07 13:43:00,78.8,68.2,30.07,North,355,1.0,3.0,70,0.00,,,0.00,70,LWC V2.00 B2112,2013-08-07 17:43:00,
2013-08-07 13:48:00,78.8,67.3,30.07,North,355,2.0,2.0,68,0.00,,,0.00,58,LWC V2.00 B2112,2013-08-07 17:48:00,
2013-08-07 13:53:00,78.5,67.5,30.07,North,0,0.0,3.0,69,0.00,,,0.00,70,LWC V2.00 B2112,2013-08-07 17:53:00,
2013-08-07 13:58:00,78.2,67.6,30.07,North,355,2.0,3.0,70,0.00,,,0.00,91,LWC V2.00 B2112,2013-08-07 17:58:00,
2013-08-07 14:03:00,78.2,67.6,30.07,North,350,0.0,2.0,70,0.00,,,0.00,42,LWC V2.00 B2112,2013-08-07 18:03:00,
2013-08-07 14:08:00,78.0,67.4,30.07,North,355,0.0,1.0,70,0.00,,,0.00,74,LWC V2.00 B2112,2013-08-07 18:08:00,
2013-08-07 14:13:00,77.9,67.7,30.06,North,351,0.0,2.0,71,0.00,,,0.00,49,LWC V2.00 B2112,2013-08-07 18:13:00,
2013-08-07 14:18:00,77.9,67.7,30.07,North,0,1.0,3.0,71,0.00,,,0.00,28,LWC V2.00 B2112,2013-08-07 18:18:00,
2013-08-07 14:23:00,77.7,67.1,30.07,North,350,1.0,2.0,70,0.00,,,0.00,18,LWC V2.00 B2112,2013-08-07 18:23:00,
2013-08-07 14:28:00,77.4,67.2,30.06,North,0,2.0,2.0,71,0.00,,,0.00,19,LWC V2.00 B2112,2013-08-07 18:28:00,
2013-08-07 14:33:00,77.2,67.5,30.07,North,355,1.0,1.0,72,0.00,,,0.00,23,LWC V2.00 B2112,2013-08-07 18:33:00,
2013-08-07 14:38:00,77.1,67.4,30.06,North,349,0.0,2.0,72,0.00,,,0.00,21,LWC V2.00 B2112,2013-08-07 18:38:00,
2013-08-07 14:43:00,77.0,67.7,30.06,NNW,348,1.0,2.0,73,0.00,,,0.00,33,LWC V2.00 B2112,2013-08-07 18:43:00,
2013-08-07 14:48:00,77.0,68.4,30.06,North,349,0.0,1.0,75,0.00,,,0.00,47,LWC V2.00 B2112,2013-08-07 18:48:00,
2013-08-07 14:53:00,77.0,68.1,30.06,North,350,1.0,2.0,74,0.00,,,0.00,37,LWC V2.00 B2112,2013-08-07 18:53:00,
2013-08-07 14:58:00,77.0,68.1,30.06,North,0,1.0,3.0,74,0.00,,,0.00,26,LWC V2.00 B2112,2013-08-07 18:58:00,
2013-08-07 15:03:00,77.0,68.1,30.06,North,355,0.0,1.0,74,0.00,,,0.00,25,LWC V2.00 B2112,2013-08-07 19:03:00,
2013-08-07 15:08:00,77.0,68.1,30.06,North,350,0.0,3.0,74,0.00,,,0.00,51,LWC V2.00 B2112,2013-08-07 19:08:00,
2013-08-07 15:13:00,77.0,68.1,30.06,North,0,0.0,2.0,74,0.00,,,0.00,54,LWC V2.00 B2112,2013-08-07 19:13:00,
2013-08-07 15:18:00,77.1,68.2,30.05,North,0,0.0,1.0,74,0.00,,,0.00,51,LWC V2.00 B2112,2013-08-07 19:18:00,
2013-08-07 15:23:00,77.1,68.2,30.05,North,351,1.0,2.0,74,0.00,,,0.00,32,LWC V2.00 B2112,2013-08-07 19:23:00,
2013-08-07 15:28:00,77.1,68.2,30.06,North,350,1.0,1.0,74,0.00,,,0.00,30,LWC V2.00 B2112,2013-08-07 19:28:00,
2013-08-07 15:33:00,77.0,68.1,30.05,North,350,0.0,0.0,74,0.00,,,0.00,26,LWC V2.00 B2112,2013-08-07 19:33:00,
2013-08-07 15:38:00,76.9,68.4,30.05,North,349,0.0,2.0,75,0.00,,,0.00,42,LWC V2.00 B2112,2013-08-07 19:38:00,
2013-08-07 15:43:00,76.9,68.7,30.05,North,349,1.0,1.0,76,0.00,,,0.00,44,LWC V2.00 B2112,2013-08-07 19:43:00,
2013-08-07 15:48:00,77.0,68.4,30.05,North,349,1.0,1.0,75,0.00,,,0.00,37,LWC V2.00 B2112,2013-08-07 19:48:00,
2013-08-07 15:54:00,77.0,68.4,30.05,North,0,0.0,2.0,75,0.00,,,0.00,51,LWC V2.00 B2112,2013-08-07 19:54:00,
2013-08-07 15:59:00,77.2,68.3,30.05,North,355,0.0,2.0,74,0.00,,,0.00,51,LWC V2.00 B2112,2013-08-07 19:59:00,
2013-08-07 16:04:00,77.3,68.7,30.05,North,0,0.0,2.0,75,0.00,,,0.00,77,LWC V2.00 B2112,2013-08-07 20:04:00,
2013-08-07 16:09:00,77.5,68.1,30.05,North,0,0.0,3.0,73,0.00,,,0.00,54,LWC V2.00 B2112,2013-08-07 20:09:00,
2013-08-07 16:14:00,77.5,68.1,30.05,North,0,1.0,2.0,73,0.00,,,0.00,49,LWC V2.00 B2112,2013-08-07 20:14:00,
2013-08-07 16:19:00,77.4,68.0,30.05,North,0,0.0,1.0,73,0.00,,,0.00,40,LWC V2.00 B2112,2013-08-07 20:19:00,
2013-08-07 16:24:00,77.3,68.7,30.05,North,0,0.0,2.0,75,0.00,,,0.00,32,LWC V2.00 B2112,2013-08-07 20:24:00,
2013-08-07 16:29:00,77.1,68.5,30.04,North,0,0.0,1.0,75,0.00,,,0.00,25,LWC V2.00 B2112,2013-08-07 20:29:00,
2013-08-07 16:34:00,76.9,68.0,30.04,North,0,0.0,2.0,74,0.00,,,0.00,26,LWC V2.00 B2112,2013-08-07 20:34:00,
2013-08-07 16:39:00,76.8,67.9,30.04,North,355,1.0,1.0,74,0.00,,,0.00,12,LWC V2.00 B2112,2013-08-07 20:39:00,
2013-08-07 16:44:00,76.6,68.1,30.04,North,350,0.0,2.0,75,0.00,,,0.00,19,LWC V2.00 B2112,2013-08-07 20:44:00,
2013-08-07 16:49:00,76.5,68.4,30.04,North,350,0.0,2.0,76,0.00,,,0.00,12,LWC V2.00 B2112,2013-08-07 20:49:00,
2013-08-07 16:54:00,76.3,68.5,30.05,North,350,0.0,1.0,77,0.00,,,0.00,9,LWC V2.00 B2112,2013-08-07 20:54:00,
2013-08-07 16:59:00,76.1,68.3,30.05,North,350,0.0,0.0,77,0.00,,,0.00,11,LWC V2.00 B2112,2013-08-07 20:59:00,
2013-08-07 17:04:00,76.0,68.3,30.05,North,350,0.0,1.0,77,0.00,,,0.00,12,LWC V2.00 B2112,2013-08-07 21:04:00,
2013-08-07 17:09:00,75.8,68.1,30.05,North,355,1.0,3.0,77,0.00,,,0.00,14,LWC V2.00 B2112,2013-08-07 21:09:00,
2013-08-07 17:14:00,75.7,68.3,30.05,North,350,1.0,2.0,78,0.00,,,0.00,16,LWC V2.00 B2112,2013-08-07 21:14:00,
2013-08-07 17:19:00,75.6,68.2,30.05,North,0,2.0,2.0,78,0.00,,,0.00,14,LWC V2.00 B2112,2013-08-07 21:19:00,
2013-08-07 17:24:00,75.5,68.5,30.04,North,355,0.0,2.0,79,0.00,,,0.00,11,LWC V2.00 B2112,2013-08-07 21:24:00,
2013-08-07 17:29:00,75.3,68.3,30.04,North,0,3.0,3.0,79,0.00,,,0.00,9,LWC V2.00 B2112,2013-08-07 21:29:00,
2013-08-07 17:34:00,75.2,68.2,30.04,North,355,1.0,2.0,79,0.00,,,0.00,7,LWC V2.00 B2112,2013-08-07 21:34:00,
2013-08-07 17:39:00,75.1,68.5,30.04,NNW,338,0.0,1.0,80,0.00,,,0.00,12,LWC V2.00 B2112,2013-08-07 21:39:00,
2013-08-07 17:44:00,75.0,68.0,30.04,North,355,1.0,2.0,79,0.00,,,0.00,19,LWC V2.00 B2112,2013-08-07 21:44:00,
2013-08-07 17:49:00,75.0,68.0,30.04,North,355,1.0,2.0,79,0.00,,,0.00,19,LWC V2.00 B2112,2013-08-07 21:49:00,
2013-08-07 17:54:00,75.1,68.5,30.04,NNW,342,2.0,2.0,80,0.00,,,0.00,18,LWC V2.00 B2112,2013-08-07 21:54:00,
2013-08-07 17:59:00,75.1,68.5,30.04,North,355,0.0,1.0,80,0.00,,,0.00,26,LWC V2.00 B2112,2013-08-07 21:59:00,
2013-08-07 18:04:00,75.1,68.5,30.04,North,355,0.0,1.0,80,0.00,,,0.00,25,LWC V2.00 B2112,2013-08-07 22:04:00,
2013-08-07 18:09:00,75.2,68.6,30.03,North,349,0.0,1.0,80,0.00,,,0.00,21,LWC V2.00 B2112,2013-08-07 22:09:00,
2013-08-07 18:14:00,75.3,69.1,30.03,North,349,0.0,0.0,81,0.00,,,0.00,25,LWC V2.00 B2112,2013-08-07 22:14:00,
2013-08-07 18:19:00,75.3,69.1,30.03,North,355,0.0,2.0,81,0.00,,,0.00,19,LWC V2.00 B2112,2013-08-07 22:19:00,
2013-08-07 18:24:00,75.4,68.8,30.03,North,355,0.0,2.0,80,0.00,,,0.00,11,LWC V2.00 B2112,2013-08-07 22:24:00,
2013-08-07 18:29:00,75.4,68.8,30.03,North,355,0.0,0.0,80,0.00,,,0.00,9,LWC V2.00 B2112,2013-08-07 22:29:00,
2013-08-07 18:34:00,75.3,68.7,30.03,North,355,0.0,1.0,80,0.00,,,0.00,0,LWC V2.00 B2112,2013-08-07 22:34:00,
2013-08-07 18:39:00,75.2,68.6,30.03,North,355,0.0,1.0,80,0.00,,,0.00,5,LWC V2.00 B2112,2013-08-07 22:39:00,
2013-08-07 18:44:00,75.2,68.6,30.03,North,355,1.0,1.0,80,0.00,,,0.00,5,LWC V2.00 B2112,2013-08-07 22:44:00,
2013-08-07 18:49:00,75.1,68.9,30.03,North,355,1.0,1.0,81,0.00,,,0.00,0,LWC V2.00 B2112,2013-08-07 22:49:00,
2013-08-07 18:54:00,74.9,68.7,30.03,North,349,2.0,2.0,81,0.00,,,0.00,0,LWC V2.00 B2112,2013-08-07 22:54:00,
2013-08-07 18:59:00,74.8,68.6,30.04,North,350,0.0,2.0,81,0.00,,,0.00,0,LWC V2.00 B2112,2013-08-07 22:59:00,
2013-08-07 19:04:00,74.7,68.5,30.03,North,355,1.0,2.0,81,0.00,,,0.00,0,LWC V2.00 B2112,2013-08-07 23:04:00,
2013-08-07 19:09:00,74.7,68.8,30.03,North,355,2.0,2.0,82,0.00,,,0.00,0,LWC V2.00 B2112,2013-08-07 23:09:00,
2013-08-07 19:14:00,74.6,68.7,30.03,North,355,0.0,0.0,82,0.00,,,0.00,0,LWC V2.00 B2112,2013-08-07 23:14:00,
2013-08-07 19:19:00,74.5,68.6,30.03,North,351,1.0,1.0,82,0.00,,,0.00,0,LWC V2.00 B2112,2013-08-07 23:19:00,
2013-08-07 19:24:00,74.5,68.6,30.03,North,355,1.0,1.0,82,0.00,,,0.00,0,LWC V2.00 B2112,2013-08-07 23:24:00,
2013-08-07 19:29:00,74.4,68.5,30.03,North,351,1.0,1.0,82,0.00,,,0.00,5,LWC V2.00 B2112,2013-08-07 23:29:00,
2013-08-07 19:34:00,74.4,68.2,30.03,North,355,0.0,0.0,81,0.00,,,0.00,0,LWC V2.00 B2112,2013-08-07 23:34:00,
2013-08-07 19:39:00,74.3,68.1,30.03,NNW,341,1.0,4.0,81,0.00,,,0.00,0,LWC V2.00 B2112,2013-08-07 23:39:00,
2013-08-07 19:44:00,74.3,68.4,30.04,NNW,341,0.0,1.0,82,0.00,,,0.00,0,LWC V2.00 B2112,2013-08-07 23:44:00,
2013-08-07 19:49:00,74.3,68.4,30.03,North,355,0.0,0.0,82,0.00,,,0.00,0,LWC V2.00 B2112,2013-08-07 23:49:00,
2013-08-07 19:54:00,74.2,68.3,30.03,North,355,1.0,2.0,82,0.00,,,0.00,0,LWC V2.00 B2112,2013-08-07 23:54:00,
2013-08-07 19:59:00,74.2,68.0,30.03,NNW,344,0.0,3.0,81,0.00,,,0.00,0,LWC V2.00 B2112,2013-08-07 23:59:00,
2013-08-07 20:04:00,74.2,68.0,30.03,North,355,0.0,1.0,81,0.00,,,0.00,0,LWC V2.00 B2112,2013-08-08 00:04:00,
2013-08-07 20:09:00,74.1,67.9,30.03,NNW,336,0.0,3.0,81,0.00,,,0.00,0,LWC V2.00 B2112,2013-08-08 00:09:00,
2013-08-07 20:14:00,74.0,68.5,30.03,NNW,332,0.0,1.0,83,0.00,,,0.00,0,LWC V2.00 B2112,2013-08-08 00:14:00,
2013-08-07 20:19:00,73.9,68.7,30.03,NNW,332,0.0,1.0,84,0.00,,,0.00,0,LWC V2.00 B2112,2013-08-08 00:19:00,
2013-08-07 20:24:00,73.7,68.6,30.03,NNW,332,0.0,0.0,84,0.00,,,0.00,0,LWC V2.00 B2112,2013-08-08 00:24:00,
2013-08-07 20:29:00,73.4,68.6,30.03,NNW,332,0.0,0.0,85,0.00,,,0.00,0,LWC V2.00 B2112,2013-08-08 00:29:00,
2013-08-07 20:34:00,73.2,68.4,30.04,NNW,332,1.0,1.0,85,0.00,,,0.00,0,LWC V2.00 B2112,2013-08-08 00:34:00,
2013-08-07 20:39:00,73.0,68.2,30.04,NNW,332,0.0,1.0,85,0.00,,,0.00,0,LWC V2.00 B2112,2013-08-08 00:39:00,
2013-08-07 20:44:00,72.8,68.4,30.04,NNW,332,0.0,1.0,86,0.00,,,0.00,0,LWC V2.00 B2112,2013-08-08 00:44:00,
2013-08-07 20:49:00,72.7,68.3,30.04,NNW,332,0.0,2.0,86,0.00,,,0.00,0,LWC V2.00 B2112,2013-08-08 00:49:00,
2013-08-07 20:54:00,72.6,68.2,30.04,North,355,0.0,0.0,86,0.00,,,0.00,0,LWC V2.00 B2112,2013-08-08 00:54:00,
2013-08-07 20:59:00,72.5,68.4,30.04,North,355,0.0,0.0,87,0.00,,,0.00,0,LWC V2.00 B2112,2013-08-08 00:59:00,
2013-08-07 21:04:00,72.5,68.4,30.04,North,355,0.0,0.0,87,0.00,,,0.00,0,LWC V2.00 B2112,2013-08-08 01:04:00,
2013-08-07 21:09:00,72.5,68.4,30.04,North,355,0.0,0.0,87,0.00,,,0.00,0,LWC V2.00 B2112,2013-08-08 01:09:00,
2013-08-07 21:14:00,72.4,68.3,30.04,North,355,0.0,0.0,87,0.00,,,0.00,0,LWC V2.00 B2112,2013-08-08 01:14:00,
2013-08-07 21:19:00,72.4,68.3,30.05,North,355,0.0,0.0,87,0.00,,,0.00,0,LWC V2.00 B2112,2013-08-08 01:19:00,
2013-08-07 21:24:00,72.3,68.2,30.05,North,355,0.0,0.0,87,0.00,,,0.00,0,LWC V2.00 B2112,2013-08-08 01:24:00,
2013-08-07 21:29:00,72.3,68.2,30.05,North,355,0.0,0.0,87,0.00,,,0.00,0,LWC V2.00 B2112,2013-08-08 01:29:00,
2013-08-07 21:34:00,72.3,68.2,30.05,North,355,0.0,0.0,87,0.00,,,0.00,0,LWC V2.00 B2112,2013-08-08 01:34:00,
2013-08-07 21:39:00,72.3,68.2,30.05,North,355,0.0,0.0,87,0.00,,,0.00,0,LWC V2.00 B2112,2013-08-08 01:39:00,
2013-08-07 21:44:00,72.3,68.2,30.05,North,355,0.0,1.0,87,0.00,,,0.00,0,LWC V2.00 B2112,2013-08-08 01:44:00,
2013-08-07 21:49:00,72.4,68.3,30.04,North,355,0.0,0.0,87,0.00,,,0.00,0,LWC V2.00 B2112,2013-08-08 01:49:00,
2013-08-07 21:54:00,72.4,68.3,30.04,North,355,0.0,0.0,87,0.00,,,0.00,0,LWC V2.00 B2112,2013-08-08 01:54:00,
2013-08-07 21:59:00,72.3,68.2,30.05,North,355,0.0,0.0,87,0.00,,,0.00,0,LWC V2.00 B2112,2013-08-08 01:59:00,
2013-08-07 22:04:00,72.3,68.2,30.05,North,355,0.0,0.0,87,0.00,,,0.00,0,LWC V2.00 B2112,2013-08-08 02:04:00,
2013-08-07 22:09:00,72.3,68.5,30.05,North,355,0.0,0.0,88,0.00,,,0.00,0,LWC V2.00 B2112,2013-08-08 02:09:00,
2013-08-07 22:14:00,72.2,68.4,30.05,North,355,0.0,0.0,88,0.00,,,0.00,0,LWC V2.00 B2112,2013-08-08 02:14:00,
2013-08-07 22:19:00,72.2,68.4,30.05,North,355,1.0,1.0,88,0.00,,,0.00,0,LWC V2.00 B2112,2013-08-08 02:19:00,
2013-08-07 22:24:00,72.1,68.3,30.05,North,355,0.0,0.0,88,0.00,,,0.00,0,LWC V2.00 B2112,2013-08-08 02:24:00,
2013-08-07 22:29:00,72.1,68.3,30.05,North,355,0.0,1.0,88,0.00,,,0.00,0,LWC V2.00 B2112,2013-08-08 02:29:00,
2013-08-07 22:34:00,72.1,68.3,30.05,North,355,0.0,0.0,88,0.00,,,0.00,0,LWC V2.00 B2112,2013-08-08 02:34:00,
2013-08-07 22:39:00,72.1,68.3,30.05,North,355,0.0,0.0,88,0.00,,,0.00,0,LWC V2.00 B2112,2013-08-08 02:39:00,
2013-08-07 22:44:00,72.1,68.3,30.05,North,355,0.0,0.0,88,0.00,,,0.00,0,LWC V2.00 B2112,2013-08-08 02:44:00,
2013-08-07 22:49:00,72.1,68.3,30.05,North,355,0.0,1.0,88,0.00,,,0.00,0,LWC V2.00 B2112,2013-08-08 02:49:00,
2013-08-07 22:54:00,72.1,68.3,30.05,North,355,0.0,0.0,88,0.00,,,0.00,0,LWC V2.00 B2112,2013-08-08 02:54:00,
2013-08-07 22:59:00,72.1,68.3,30.05,North,355,0.0,1.0,88,0.00,,,0.00,0,LWC V2.00 B2112,2013-08-08 02:59:00,
2013-08-07 23:04:00,72.1,68.7,30.04,North,355,0.0,1.0,89,0.00,,,0.00,0,LWC V2.00 B2112,2013-08-08 03:04:00,
2013-08-07 23:09:00,72.1,68.7,30.04,North,355,0.0,0.0,89,0.00,,,0.00,0,LWC V2.00 B2112,2013-08-08 03:09:00,
2013-08-07 23:14:00,72.0,68.6,30.04,North,355,0.0,0.0,89,0.00,,,0.00,0,LWC V2.00 B2112,2013-08-08 03:14:00,
2013-08-07 23:19:00,72.0,68.6,30.03,North,355,0.0,0.0,89,0.00,,,0.00,0,LWC V2.00 B2112,2013-08-08 03:19:00,
2013-08-07 23:24:00,71.9,68.5,30.04,North,355,0.0,0.0,89,0.00,,,0.00,0,LWC V2.00 B2112,2013-08-08 03:24:00,
2013-08-07 23:29:00,71.9,68.5,30.04,North,355,0.0,0.0,89,0.00,,,0.00,0,LWC V2.00 B2112,2013-08-08 03:29:00,
2013-08-07 23:34:00,71.8,68.4,30.04,North,355,0.0,0.0,89,0.00,,,0.00,0,LWC V2.00 B2112,2013-08-08 03:34:00,
2013-08-07 23:39:00,71.7,68.3,30.03,North,355,0.0,0.0,89,0.00,,,0.00,0,LWC V2.00 B2112,2013-08-08 03:39:00,
2013-08-07 23:44:00,71.7,68.3,30.03,North,355,0.0,0.0,89,0.00,,,0.00,0,LWC V2.00 B2112,2013-08-08 03:44:00,
2013-08-07 23:49:00,71.6,68.5,30.03,North,355,0.0,0.0,90,0.00,,,0.00,0,LWC V2.00 B2112,2013-08-08 03:49:00,
2013-08-07 23:54:00,71.6,68.5,30.03,North,355,0.0,0.0,90,0.00,,,0.00,0,LWC V2.00 B2112,2013-08-08 03:54:00,
2013-08-07 23:59:00,71.6,68.5,30.04,North,355,0.0,0.0,90,0.00,,,0.00,0,LWC V2.00 B2112,2013-08-08 03:59:00,